Location: New Plymouth
(39.0670°S, 174.0830°E)
Time: 04:01:24
(UTC+13:00)

CENTAUR R/B - Pass Details

Date: 24 January 2019
Orbit: 780 x 1408 km, 63.4° (Epoch: 08 October)

Event Time Altitude Azimuth Distance (km) Brightness Sun altitude
Exits shadow 23:29:06 31° 80° (E) 2,040 3.8 -24.6°
Drops below altitude 10° 23:34:37 10° 127° (SE) 3,079 5.1 -25.2°
Sets 23:37:28 0° 136° (SE) 3,949 5.9 -25.5°
